TimeCDT,TemperatureF,Dew PointF,Humidity,Sea Level PressureIn,VisibilityMPH,Wind Direction,Wind SpeedMPH,Gust SpeedMPH,PrecipitationIn,Events,Conditions,WindDirDegrees,DateUTC
12:53 AM,46.0,43.0,89,30.20,10.0,Calm,Calm,-,N/A,,Clear,0,2011-10-04 05:53:00
1:53 AM,45.0,42.1,90,30.22,10.0,Calm,Calm,-,N/A,,Clear,0,2011-10-04 06:53:00
2:53 AM,45.0,42.1,90,30.22,10.0,Calm,Calm,-,N/A,,Clear,0,2011-10-04 07:53:00
3:53 AM,44.1,41.0,89,30.22,10.0,Calm,Calm,-,N/A,,Clear,0,2011-10-04 08:53:00
4:53 AM,44.1,41.0,89,30.23,10.0,Calm,Calm,-,N/A,,Clear,0,2011-10-04 09:53:00
5:53 AM,44.6,41.0,87,30.25,10.0,Calm,Calm,-,N/A,,Clear,0,2011-10-04 10:53:00
6:53 AM,42.1,39.9,92,30.27,4.0,Calm,Calm,-,N/A,,Clear,0,2011-10-04 11:53:00
7:53 AM,48.9,45.0,86,30.29,6.0,Calm,Calm,-,N/A,,Clear,0,2011-10-04 12:53:00
8:53 AM,61.0,52.0,72,30.29,10.0,Calm,Calm,-,N/A,,Clear,0,2011-10-04 13:53:00
9:53 AM,66.9,51.1,57,30.30,10.0,Calm,Calm,-,N/A,,Clear,0,2011-10-04 14:53:00
10:53 AM,73.0,44.1,35,30.30,10.0,Calm,Calm,-,N/A,,Clear,0,2011-10-04 15:53:00
11:53 AM,77.0,44.1,31,30.29,10.0,Calm,Calm,-,N/A,,Clear,0,2011-10-04 16:53:00
12:53 PM,78.1,42.1,28,30.27,10.0,Variable,4.6,-,N/A,,Clear,0,2011-10-04 17:53:00
1:53 PM,78.1,44.1,30,30.24,10.0,Calm,Calm,-,N/A,,Clear,0,2011-10-04 18:53:00
2:53 PM,79.0,43.0,28,30.22,10.0,Calm,Calm,-,N/A,,Clear,0,2011-10-04 19:53:00
3:53 PM,79.0,45.0,30,30.21,10.0,Variable,3.5,-,N/A,,Clear,0,2011-10-04 20:53:00
4:53 PM,78.8,44.6,30,30.21,10.0,ENE,5.8,-,N/A,,Clear,60,2011-10-04 21:53:00
5:53 PM,75.0,46.0,36,30.20,10.0,East,3.5,-,N/A,,Clear,80,2011-10-04 22:53:00
6:53 PM,63.0,50.0,63,30.20,10.0,Calm,Calm,-,N/A,,Clear,0,2011-10-04 23:53:00
7:53 PM,57.0,48.9,74,30.21,10.0,Calm,Calm,-,N/A,,Clear,0,2011-10-05 00:53:00
8:53 PM,54.0,48.9,83,30.22,10.0,Calm,Calm,-,N/A,,Clear,0,2011-10-05 01:53:00
9:53 PM,53.1,48.0,83,30.22,10.0,Calm,Calm,-,N/A,,Clear,0,2011-10-05 02:53:00
10:53 PM,52.0,46.9,83,30.22,10.0,SW,4.6,-,N/A,,Clear,230,2011-10-05 03:53:00
11:53 PM,52.0,46.9,83,30.22,10.0,Calm,Calm,-,N/A,,Clear,0,2011-10-05 04:53:00